DW9565 Weather Reports


Display with metric or nautical units.
time (UTC)temp
F
wind
direction
speed
MPH
gust
MPH
rain 1hr
in
rain 24hr
in
rain mn
in
humidity
%
barometer
mb
20260507101518 50 121 0.0 2.0 0.00 0.00 0.00 51 1012.0
20260507100016 51 121 1.0 4.0 0.00 0.00 0.00 50 1012.0
20260507094516 50 121 3.0 6.0 0.00 0.00 0.00 51 1011.9
20260507093016 50 142 0.0 3.0 0.00 0.00 0.00 52 1011.8
20260507091511 48 142 0.0 3.0 0.00 0.00 0.00 53 1011.6
20260507090012 49 142 4.0 10.0 0.00 0.00 0.00 52 1011.3
20260507084532 48 124 5.0 13.0 0.00 0.00 0.00 52 1011.3
20260507083011 47 115 8.0 10.0 0.00 0.00 0.00 54 1011.2
20260507081513 47 101 5.0 11.0 0.00 0.00 0.00 55 1011.5
20260507080009 47 103 6.0 10.0 0.00 0.00 0.00 58 1011.3
20260507074508 48 121 8.0 10.0 0.00 0.00 0.00 58 1011.2
20260507073007 47 94 7.0 10.0 0.00 0.00 0.00 62 1011.2
20260507071505 49 69 8.0 13.0 0.00 0.00 0.00 59 1011.0
20260507070018 50 131 8.0 10.0 0.00 0.00 0.00 58 1010.8
20260507064515 49 138 9.0 12.0 0.00 0.00 0.00 60 1010.7
20260507063012 48 113 8.0 14.0 0.00 0.00 0.00 58 1010.8
20260507061510 46 124 9.0 14.0 0.00 0.00 0.00 55 1010.7
20260507060101 47 112 10.0 14.0 0.00 0.00 0.00 51 1010.9
20260507054612 49 103 11.0 19.0 0.00 0.00 0.00 45 1010.9
20260507053105 50 111 15.0 22.0 0.00 0.00 0.00 42 1010.8
20260507051558 51 113 19.0 23.0 0.00 0.00 0.00 37 1010.4
20260507050056 52 58 14.0 20.0 0.00 0.00 0.00 38 1011.3
20260507044557 53 86 11.0 19.0 0.00 0.00 0.00 38 1010.4
20260507043053 54 109 13.0 18.0 0.00 0.00 0.00 37 1009.9
20260507041601 55 103 10.0 13.0 0.00 0.00 0.00 38 1010.2
20260507040055 57 108 12.0 17.0 0.00 0.00 0.00 34 1010.0
20260507034559 57 115 11.0 14.0 0.00 0.00 0.00 35 1009.6
20260507033055 58 123 9.0 13.0 0.00 0.00 0.00 35 1009.8
20260507031553 57 113 9.0 11.0 0.00 0.00 0.00 37 1009.7
20260507030053 55 119 7.0 8.0 0.00 0.00 0.00 40 1009.5
20260507024554 56 102 3.0 7.0 0.00 0.00 0.00 39 1009.5
20260507023052 58 62 2.0 4.0 0.00 0.00 0.00 38 1009.6
20260507021608 59 40 3.0 6.0 0.00 0.00 0.00 36 1009.4
20260507020109 60 49 5.0 7.0 0.00 0.00 0.00 34 1009.2
20260507014618 62 28 6.0 9.0 0.00 0.00 0.00 29 1009.3
20260507013052 63 333 4.0 6.0 0.00 0.00 0.00 28 1009.3
20260507011557 65 326 5.0 10.0 0.00 0.00 0.00 27 1009.6
20260507010049 66 304 4.0 10.0 0.00 0.00 0.00 27 1009.5
20260507004548 65 327 8.0 12.0 0.00 0.00 0.00 26 1009.6
20260507003047 66 342 11.0 17.0 0.00 0.00 0.00 26 1009.7
20260507001600 66 335 9.0 16.0 0.00 0.00 0.00 25 1009.8
20260507000122 66 302 16.0 22.0 0.00 0.00 0.00 24 1009.8
20260506234615 67 291 18.0 24.0 0.00 0.00 0.00 23 1009.8
20260506233053 65 289 14.0 19.0 0.00 0.00 0.00 24 1009.9
20260506231552 66 302 11.0 19.0 0.00 0.00 0.00 25 1010.0
20260506230052 66 284 15.0 25.0 0.00 0.00 0.00 25 1010.0
20260506224542 65 273 9.0 17.0 0.00 0.00 0.00 25 1010.1
20260506223040 65 275 8.0 16.0 0.00 0.00 0.00 27 1010.2
20260506221550 66 282 10.0 21.0 0.00 0.00 0.00 27 1010.5
20260506220045 65 286 13.0 21.0 0.00 0.00 0.00 26 1010.6
20260506214537 64 218 3.0 16.0 0.00 0.00 0.00 28 1010.9
20260506213043 64 290 9.0 17.0 0.00 0.00 0.00 29 1011.0
20260506211542 63 309 9.0 20.0 0.00 0.00 0.00 27 1011.1
20260506210042 62 312 8.0 14.0 0.00 0.00 0.00 28 1011.2
20260506204533 61 180 6.0 15.0 0.00 0.00 0.00 27 1011.5
20260506203027 60 261 8.0 14.0 0.00 0.00 0.00 29 1011.9
20260506201533 58 233 7.0 17.0 0.00 0.00 0.00 27 1011.9
20260506200029 59 227 11.0 17.0 0.00 0.00 0.00 28 1012.0
20260506194521 58 221 9.0 18.0 0.00 0.00 0.00 30 1012.4
20260506193030 57 248 9.0 14.0 0.00 0.00 0.00 29 1012.5
20260506191516 57 200 10.0 15.0 0.00 0.00 0.00 30 1012.7
20260506190017 55 210 4.0 18.0 0.00 0.00 0.00 29 1012.8
20260506184514 55 224 4.0 15.0 0.00 0.00 0.00 30 1013.1
20260506183012 53 201 7.0 16.0 0.00 0.00 0.00 30 1013.2
20260506181526 53 242 7.0 18.0 0.00 0.00 0.00 31 1013.4
20260506180014 53 188 12.0 18.0 0.00 0.00 0.00 28 1013.6
20260506174511 51 190 9.0 17.0 0.00 0.00 0.00 31 1013.7
20260506173010 51 203 12.0 20.0 0.00 0.00 0.00 31 1013.9
20260506171513 51 196 11.0 17.0 0.00 0.00 0.00 31 1014.1
20260506170013 50 184 9.0 16.0 0.00 0.00 0.00 34 1014.4
20260506164511 50 196 10.0 14.0 0.00 0.00 0.00 32 1014.5
20260506163015 49 224 10.0 16.0 0.00 0.00 0.00 34 1014.7
20260506161508 48 199 11.0 18.0 0.00 0.00 0.00 31 1014.9
20260506160055 48 184 12.0 17.0 0.00 0.00 0.00 35 1015.0
20260506154609 47 176 12.0 19.0 0.00 0.00 0.00 35 1015.1
20260506153051 46 192 12.0 17.0 0.00 0.00 0.00 38 1015.3
20260506151547 45 201 12.0 18.0 0.00 0.00 0.00 39 1015.4
20260506150046 44 184 13.0 18.0 0.00 0.00 0.00 42 1015.6
20260506144551 44 194 14.0 20.0 0.00 0.00 0.00 43 1015.6
20260506143041 43 189 13.0 17.0 0.00 0.00 0.00 45 1015.7
20260506141539 43 180 12.0 18.0 0.00 0.00 0.00 47 1015.8
20260506140046 42 184 12.0 17.0 0.00 0.00 0.00 50 1016.0
20260506134543 41 194 11.0 16.0 0.00 0.00 0.00 51 1015.9
20260506133055 40 182 11.0 15.0 0.00 0.00 0.00 53 1016.2
20260506131537 38 191 10.0 16.0 0.00 0.00 0.00 55 1016.2
20260506130029 36 182 10.0 14.0 0.00 0.00 0.00 53 1016.2
20260506124526 35 195 10.0 14.0 0.00 0.00 0.00 51 1016.3
20260506123023 34 185 7.0 11.0 0.00 0.00 0.00 52 1016.3
20260506121522 33 199 8.0 11.0 0.00 0.00 0.00 53 1016.3
20260506120020 33 187 8.0 11.0 0.00 0.00 0.00 55 1016.4
20260506114522 32 193 8.0 11.0 0.00 0.00 0.00 56 1016.6
20260506113018 32 188 7.0 13.0 0.00 0.00 0.00 56 1016.8
20260506111515 32 202 7.0 11.0 0.00 0.00 0.00 57 1016.8
20260506110017 31 193 9.0 11.0 0.00 0.00 0.00 58 1017.1
20260506104533 31 229 4.0 6.0 0.00 0.00 0.00 58 1017.1
20260506103014 31 239 4.0 8.0 0.00 0.00 0.00 59 1017.2